DW4207 Weather Reports


Display with metric or nautical units.
time (UTC)temp
F
wind
direction
speed
MPH
gust
MPH
rain 1hr
in
rain 24hr
in
rain mn
in
humidity
%
barometer
mb
20260510082004 56 357 1.0 5.0 0.00 0.00 0.00 63 1012.3
20260510081004 56 356 2.0 7.0 0.00 0.00 0.00 63 1012.3
20260510080004 57 358 2.0 6.0 0.00 0.01 0.00 63 1011.9
20260510075004 57 357 2.0 4.0 0.00 0.01 0.00 63 1011.9
20260510074004 57 350 2.0 4.0 0.00 0.01 0.00 64 1012.1
20260510073004 57 352 1.0 4.0 0.00 0.01 0.00 62 1011.8
20260510072004 57 354 2.0 4.0 0.00 0.01 0.00 62 1011.6
20260510071004 58 358 1.0 5.0 0.00 0.01 0.00 61 1011.5
20260510070004 58 350 2.0 5.0 0.00 0.01 0.00 61 1011.6
20260510065004 58 348 2.0 4.0 0.00 0.01 0.00 59 1011.7
20260510064004 59 8 1.0 4.0 0.00 0.01 0.00 58 1011.3
20260510063004 59 9 2.0 8.0 0.00 0.01 0.00 58 1011.2
20260510062004 59 359 3.0 10.0 0.00 0.01 0.00 60 1011.2
20260510061004 60 347 3.0 8.0 0.00 0.01 0.00 61 1011.4
20260510060025 60 348 3.0 7.0 0.00 0.01 0.00 64 1011.3
20260510055004 60 351 3.0 8.0 0.00 0.01 0.00 66 1010.8
20260510054004 60 354 2.0 5.0 0.00 0.01 0.00 74 1010.8
20260510053004 59 0 0.0 0.0 0.00 0.01 0.00 78 1010.6
20260510052004 60 0 0.0 0.0 0.00 0.01 0.00 76 1010.7
20260510051025 60 0 0.0 2.0 0.00 0.01 0.00 76 1010.6
20260510050004 62 268 0.0 2.0 0.00 0.01 0.00 73 1010.5
20260510045004 62 268 0.0 2.0 0.00 0.01 0.00 74 1010.2
20260510044004 63 266 0.0 2.0 0.00 0.01 0.00 72 1010.2
20260510043004 64 242 1.0 3.0 0.00 0.01 0.00 72 1010.2
20260510042004 64 236 1.0 4.0 0.00 0.01 0.00 73 1010.2
20260510041025 65 232 1.0 4.0 0.00 0.01 0.00 73 1010.1
20260510040004 64 235 0.0 2.0 0.00 0.01 0.00 74 1010.0
20260510035025 64 232 1.0 4.0 0.00 0.01 0.01 74 1009.9
20260510034004 64 231 1.0 4.0 0.00 0.01 0.01 74 1010.0
20260510033025 64 241 1.0 3.0 0.00 0.01 0.01 74 1010.0
20260510032004 64 242 2.0 3.0 0.00 0.01 0.01 73 1010.0
20260510031004 64 298 1.0 4.0 0.00 0.01 0.01 73 1010.0
20260510030004 64 242 1.0 4.0 0.00 0.01 0.01 73 1009.7
20260510025004 64 240 0.0 2.0 0.00 0.01 0.01 73 1009.6
20260510024004 64 220 1.0 4.0 0.00 0.01 0.01 73 1009.4
20260510023004 64 207 2.0 3.0 0.00 0.01 0.01 72 1009.2
20260510022004 64 199 1.0 4.0 0.00 0.01 0.01 72 1009.0
20260510021004 65 197 2.0 5.0 0.00 0.01 0.01 72 1008.8
20260510020025 65 197 1.0 5.0 0.00 0.01 0.01 71 1008.6
20260510015004 65 182 1.0 4.0 0.00 0.01 0.01 71 1008.5
20260510014025 65 202 1.0 6.0 0.00 0.01 0.01 71 1008.3
20260510013004 66 200 2.0 5.0 0.00 0.01 0.01 69 1008.1
20260510012004 66 201 1.0 4.0 0.00 0.01 0.01 69 1007.9
20260510011004 66 206 1.0 4.0 0.00 0.01 0.01 67 1007.8
20260510010004 67 204 1.0 5.0 0.00 0.01 0.01 66 1007.6
20260510005004 67 209 2.0 4.0 0.00 0.02 0.01 65 1007.5
20260510004004 68 219 3.0 8.0 0.00 0.02 0.01 64 1007.3
20260510003004 68 223 5.0 11.0 0.00 0.02 0.01 63 1007.3
20260510002004 69 223 4.0 11.0 0.00 0.02 0.01 63 1007.2
20260510001004 69 229 5.0 10.0 0.00 0.02 0.01 63 1007.0
20260510000004 70 219 4.0 9.0 0.00 0.02 0.01 62 1006.9
20260509235004 70 231 3.0 9.0 0.00 0.02 0.01 62 1006.9
20260509234004 70 228 4.0 11.0 0.00 0.03 0.01 62 1006.8
20260509233004 70 225 7.0 14.0 0.00 0.03 0.01 61 1006.7
20260509232004 71 229 6.0 12.0 0.00 0.03 0.01 60 1006.8
20260509231004 71 239 6.0 13.0 0.00 0.03 0.01 60 1006.8
20260509230004 71 226 6.0 15.0 0.00 0.03 0.01 59 1006.8
20260509225004 71 236 6.0 17.0 0.00 0.05 0.01 58 1006.8
20260509224004 71 231 7.0 13.0 0.00 0.07 0.01 57 1006.8
20260509223004 72 237 7.0 17.0 0.00 0.08 0.01 57 1006.7
20260509222004 72 221 6.0 12.0 0.00 0.09 0.01 57 1006.7
20260509221004 72 220 7.0 15.0 0.00 0.11 0.01 58 1006.6
20260509220004 72 235 7.0 15.0 0.00 0.11 0.01 56 1006.7
20260509215004 72 252 5.0 12.0 0.00 0.13 0.01 58 1006.6
20260509214004 73 244 6.0 15.0 0.00 0.15 0.01 57 1006.5
20260509213004 72 238 5.0 15.0 0.00 0.17 0.01 60 1006.6
20260509212025 72 235 6.0 15.0 0.00 0.19 0.01 56 1006.7
20260509211004 71 221 7.0 15.0 0.00 0.19 0.01 57 1006.6
20260509210004 72 230 7.0 14.0 0.00 0.21 0.01 58 1006.5
20260509205003 72 217 7.0 16.0 0.00 0.23 0.01 57 1006.5
20260509204025 73 216 6.0 15.0 0.00 0.24 0.01 59 1006.6
20260509203004 72 213 7.0 14.0 0.00 0.25 0.01 56 1006.6
20260509202004 72 223 8.0 15.0 0.00 0.26 0.01 56 1006.8
20260509201003 71 225 9.0 20.0 0.00 0.26 0.01 57 1006.7
20260509200004 71 215 8.0 17.0 0.00 0.26 0.01 56 1006.9
20260509195004 72 219 7.0 19.0 0.00 0.26 0.01 58 1007.0
20260509194003 71 222 8.0 17.0 0.00 0.26 0.01 58 1007.1
20260509193004 71 207 6.0 14.0 0.00 0.26 0.01 61 1007.1
20260509192004 71 196 6.0 16.0 0.00 0.26 0.01 60 1007.1
20260509191004 70 203 7.0 16.0 0.00 0.26 0.01 59 1007.1
20260509190004 70 211 7.0 15.0 0.00 0.26 0.01 62 1007.2
20260509185024 69 219 9.0 17.0 0.00 0.26 0.01 62 1007.2
20260509184004 69 211 7.0 16.0 0.00 0.26 0.01 64 1007.2
20260509183004 69 209 7.0 14.0 0.00 0.26 0.01 66 1007.3
20260509182004 69 203 7.0 16.0 0.00 0.26 0.01 67 1007.3
20260509181004 68 209 7.0 19.0 0.00 0.26 0.01 67 1007.3
20260509180004 68 210 7.0 13.0 0.00 0.26 0.01 69 1007.3
20260509175025 67 216 7.0 16.0 0.00 0.26 0.01 68 1007.4
20260509174024 67 206 6.0 15.0 0.00 0.26 0.01 69 1007.5
20260509173004 67 202 5.0 14.0 0.00 0.26 0.01 70 1007.6
20260509172004 66 197 6.0 15.0 0.00 0.26 0.01 70 1007.7
20260509171004 67 196 5.0 11.0 0.00 0.26 0.01 72 1007.7
20260509170004 66 166 6.0 12.0 0.00 0.26 0.01 70 1007.8
20260509165004 66 210 5.0 12.0 0.00 0.26 0.01 72 1007.8
20260509164003 65 216 6.0 14.0 0.00 0.26 0.01 75 1008.0
20260509163004 65 214 5.0 13.0 0.00 0.26 0.01 73 1007.9
20260509162003 64 217 6.0 15.0 0.00 0.26 0.01 73 1008.1
20260509161004 64 214 5.0 12.0 0.00 0.26 0.01 76 1007.9
20260509160003 63 211 6.0 13.0 0.00 0.26 0.01 74 1008.0
20260509155004 63 206 7.0 12.0 0.00 0.26 0.01 74 1007.9
20260509154004 63 207 6.0 13.0 0.00 0.26 0.01 74 1008.0
20260509153004 63 221 7.0 15.0 0.00 0.26 0.01 76 1008.0
20260509152025 62 208 6.0 14.0 0.00 0.26 0.01 75 1007.9
20260509151004 62 216 6.0 12.0 0.00 0.26 0.01 77 1007.8
20260509150004 62 217 5.0 12.0 0.00 0.26 0.01 77 1007.8
20260509145003 61 210 6.0 12.0 0.00 0.26 0.01 77 1007.9
20260509144004 61 186 6.0 14.0 0.00 0.26 0.01 76 1007.7
20260509143003 60 204 6.0 13.0 0.00 0.26 0.01 77 1007.9
20260509142024 60 206 6.0 13.0 0.00 0.26 0.01 78 1007.8
20260509141003 60 219 5.0 11.0 0.00 0.26 0.01 77 1008.0
20260509140024 60 222 6.0 12.0 0.00 0.26 0.01 79 1007.9
20260509135024 59 209 5.0 12.0 0.00 0.26 0.01 82 1007.9
20260509134003 59 183 5.0 15.0 0.00 0.26 0.01 81 1007.7
20260509133004 58 209 4.0 10.0 0.00 0.26 0.01 83 1007.6
20260509132003 58 210 4.0 9.0 0.00 0.26 0.01 83 1007.5
20260509131025 58 187 4.0 9.0 0.00 0.26 0.01 85 1007.6
20260509130024 57 188 3.0 7.0 0.00 0.26 0.01 86 1007.7
20260509125003 56 215 3.0 7.0 0.00 0.26 0.01 88 1007.7
20260509124003 55 173 3.0 7.0 0.00 0.26 0.01 90 1007.6
20260509123004 55 213 3.0 7.0 0.00 0.26 0.01 91 1007.8
20260509122004 54 214 4.0 9.0 0.00 0.26 0.01 91 1007.8
20260509121024 54 204 2.0 5.0 0.00 0.26 0.01 91 1007.7
20260509120004 54 196 2.0 6.0 0.00 0.26 0.01 92 1007.5
20260509115003 54 164 2.0 6.0 0.00 0.26 0.01 92 1007.4
20260509114025 53 159 2.0 5.0 0.00 0.26 0.01 92 1007.2
20260509113004 53 156 2.0 4.0 0.00 0.26 0.01 92 1007.3
20260509112003 53 151 0.0 3.0 0.00 0.26 0.01 91 1007.4
20260509111024 53 0 0.0 0.0 0.00 0.26 0.01 91 1007.3
20260509110004 53 0 0.0 0.0 0.00 0.26 0.01 91 1007.3
20260509105003 53 0 0.0 0.0 0.00 0.26 0.01 91 1007.2
20260509104003 53 0 0.0 0.0 0.00 0.26 0.01 91 1007.2
20260509103003 53 191 0.0 2.0 0.00 0.26 0.01 91 1007.1
20260509102003 54 213 1.0 3.0 0.00 0.26 0.01 91 1007.2
20260509101003 54 208 1.0 3.0 0.00 0.26 0.01 91 1007.3
20260509100004 53 214 1.0 3.0 0.00 0.26 0.01 91 1007.3
20260509095024 53 217 1.0 3.0 0.00 0.26 0.01 91 1007.2
20260509094003 53 217 2.0 5.0 0.00 0.26 0.01 90 1007.1
20260509093004 54 198 2.0 5.0 0.00 0.26 0.01 90 1007.1
20260509092024 54 186 2.0 6.0 0.00 0.26 0.01 90 1007.1
20260509091003 54 195 2.0 6.0 0.00 0.26 0.01 90 1007.2
20260509090004 54 190 2.0 6.0 0.01 0.26 0.01 90 1007.2
20260509085003 54 200 2.0 7.0 0.01 0.26 0.01 90 1007.2
20260509084003 54 196 3.0 6.0 0.01 0.26 0.01 90 1007.2
20260509083004 54 186 3.0 6.0 0.01 0.26 0.01 90 1007.3